This is the latest recevied weather packets stored in our database for station/object WS4FSC-7. If no packets are shown the sender has not sent any weather packets the latest 10 day(s).
| Time | Temp. | Humidity | Pressure | Rain* | Wind** | Luminosity | Snow |
|---|---|---|---|---|---|---|---|
| 1788104511 | 25.56° C | 92% | 1018 hPa | - | - | 101 W/m² | - |
| 1788104330 | 25.56° C | 92% | 1018 hPa | - | - | 94 W/m² | - |
| 1788103791 | 25° C | 91% | 1018 hPa | - | - | 72 W/m² | - |
| 1788102711 | 25° C | 89% | 1018 hPa | - | - | 51 W/m² | - |
| 1788102172 | 25° C | 89% | 1018 hPa | - | - | 40 W/m² | - |
| 1788101811 | 25° C | 88% | 1018 hPa | - | - | 36 W/m² | - |
| 1788101631 | 25° C | 87% | 1017 hPa | - | - | 33 W/m² | - |
| 1788101270 | 25° C | 87% | 1017 hPa | - | - | 32 W/m² | - |
| 1788100911 | 24.44° C | 85% | 1018 hPa | - | - | 33 W/m² | - |
| 1788100731 | 24.44° C | 85% | 1017 hPa | - | - | 33 W/m² | - |
| 1788100551 | 24.44° C | 85% | 1018 hPa | - | - | 33 W/m² | - |
| 1788099651 | 25° C | 82% | 1018 hPa | - | - | 31 W/m² | - |
| 1788099111 | 25.56° C | 80% | 1017 hPa | - | - | 38 W/m² | - |
| 1788098931 | 26.11° C | 78% | 1017 hPa | - | - | 42 W/m² | - |
| 1788098571 | 26.11° C | 77% | 1017 hPa | - | - | 47 W/m² | - |
| 1788098391 | 26.11° C | 79% | 1017 hPa | - | - | 44 W/m² | - |
| 1788098211 | 26.67° C | 79% | 1017 hPa | - | - | 48 W/m² | - |
| 1788098031 | 27.78° C | 77% | 1017 hPa | - | - | 57 W/m² | - |
| 1788097852 | 28.33° C | 78% | 1017 hPa | - | - | 68 W/m² | - |
| 1788097670 | 29.44° C | 77% | 1017 hPa | - | - | 54 W/m² | - |
| 1788097492 | 30° C | 80% | 1017 hPa | - | - | 63 W/m² | - |
| 1788097131 | 30° C | 78% | 1016 hPa | - | - | 125 W/m² | - |
| 1788096950 | 30.56° C | 77% | 1016 hPa | - | - | 136 W/m² | - |
| 1788096052 | 31.11° C | 76% | 1016 hPa | - | - | 172 W/m² | - |
| 1788095871 | 31.11° C | 76% | 1016 hPa | - | - | 382 W/m² | - |
* Rain since midnight (hover to see other rain measurements)
** Current wind speed in m/s (hover to see current wind gust speed)